Temp
12 12 11 12 12 12 11 11 11 11 11 10 11 11 11 11 11 11 11 11 11 11 11 10 10 10 10 11 11 11 11 11 11 11 11 11 11 11 11 11 11 11 11
12 12 12 12 12 12 12 12 11 11 11 11 11 11 11 11 12 12 12 12 11 11 11 11 11 11 11 11 11 11 11 11 11 11 11 11 11 11 11 11 11 11 11
12 12 12 12 12 12 12 12 12 12 11 11 11 11 11 11 12 12 12 12 12 11 11 11 11 11 11 11 11 11 11 11 12 12 12 12 12 11 12 12 12 12 11
12 12 12 13 13 13 12 12 12 12 12 12 12 12 11 11 11 12 12 12 12 12 12 11 11 11 11 11 11 11 11 12 12 12 12 12 12 12 12 12 12 12 12
13 12 13 13 13 13 12 12 12 12 12 12 12 12 12 12 12 12 12 12 12 12 12 12 12 12 12 12 12 12 12 12 12 12 13 13 13 13 13 13 13 13 13
14 13 13 13 13 13 13 13 13 13 12 12 12 12 12 12 12 12 12 12 12 12 12 12 12 12 13 13 13 13 13 13 13 13 14 14 14 13 13 13 12 12 13
14 13 13 13 13 14 13 13 13 13 13 13 13 13 13 13 13 12 12 12 12 12 12 12 12 13 13 13 13 13 13 13 14 14 14 14 14 13 12 13 13 12 12
14 14 13 13 13 14 14 14 14 14 13 13 13 13 13 13 13 13 13 13 13 13 13 13 13 13 13 13 13 14 14 13 13 13 14 14 13 14 13 13 13 13 14
15 14 14 13 14 15 15 14 14 14 14 14 13 13 13 13 13 13 13 13 13 13 13 13 14 13 13 13 13 14 14 14 13 13 13 13 14 14 13 13 14 13 14
16 15 15 15 15 15 15 15 14 14 14 14 14 14 13 13 13 13 13 14 15 15 15 15 15 15 14 14 14 14 15 15 14 14 15 15 14 14 14 13 13 14 13
15 15 14 14 14 14 14 14 14 14 14 14 14 14 14 15 14 14 15 15 15 15 15 16 15 15 15 15 15 15 15 15 15 15 15 15 15 15 14 15 14 14 12
15 15 14 14 13 14 14 14 14 14 14 15 15 15 16 16 16 15 15 15 15 16 16 16 16 16 15 15 16 16 16 15 16 16 16 15 15 15 15 15 15 15 15
15 15 14 14 14 14 14 14 14 14 15 15 15 15 15 15 15 14 14 15 15 16 16 16 16 16 16 16 16 16 16 16 16 16 16 15 15 15 15 15 15 15 15
16 15 15 14 15 14 14 15 15 15 15 15 16 16 15 15 15 15 15 15 15 16 16 16 16 16 16 16 16 16 16 16 16 16 15 15 14 15 15 15 15 14 14
16 15 15 15 15 15 15 15 16 16 15 15 15 15 15 15 15 15 15 15 15 15 15 16 16 15 16 16 16 16 16 16 16 15 14 14 14 14 14 14 14 14 14
16 16 15 15 14 14 15 15 15 15 14 14 15 15 15 15 15 15 15 15 15 15 15 15 15 15 16 15 16 16 16 15 15 14 14 14 14 14 14 14 14 14 14
13 14 14 15 11 14 14 14 14 14 15 15 14 14 14 14 14 14 14 15 14 15 15 15 15 16 16 15 15 15 15 14 14 14 14 14 14 14 14 13 13 13 13
12 13 12 12 10 11 14 15 14 14 14 15 15 15 15 14 14 14 14 14 14 14 15 15 15 16 15 15 15 14 14 14 14 13 14 14 14 14 13 13 13 13 13
12 10 9 11 12 14 15 15 15 15 14 14 14 14 15 14 14 13 14 14 14 14 14 14 15 15 15 15 14 14 13 13 13 13 13 13 13 13 13 13 12 12 12
10 10 11 12 13 14 13 14 14 14 14 14 14 14 14 13 13 14 14 14 14 14 14 14 14 14 14 14 13 13 13 13 13 13 13 13 13 13 13 12 12 12 12
12 12 13 13 12 12 13 13 13 13 13 13 13 13 13 13 13 13 14 14 13 13 13 13 13 13 13 13 13 13 13 13 13 13 12 13 13 12 12 12 12 11 11
10 11 11 11 11 11 11 11 11 12 12 12 12 12 12 11 12 12 12 13 13 13 13 13 12 12 13 12 12 12 12 12 12 12 12 12 12 11 11 11 11 10 10
9 9 9 10 10 10 10 11 11 11 11 11 12 12 11 11 11 12 12 12 13 13 13 13 13 13 12 12 12 12 12 11 11 11 11 11 10 10 10 10 9 9 9
8 9 9 9 9 9 10 10 11 11 11 11 11 11 11 11 10 10 10 11 11 11 12 12 12 12 12 12 11 11 10 10 10 9 9 9 9 9 9 8 8 8 7
9 9 9 9 9 9 10 10 10 10 10 10 11 11 11 11 11 10 10 9 9 9 10 10 10 10 10 10 9 9 9 9 8 8 7 7 7 7 7 7 7 7 6
8 8 8 9 9 9 9 10 10 10 10 10 9 9 10 9 9 8 7 7 7 7 7 7 7 7 8 8 8 8 7 7 7 7 7 6 6 6 6 6 6 5 5
Height
3176 3183 3188 3194 3199 3203 3208 3212 3214 3217 3220 3223 3226 3229 3231 3233 3235 3237 3238 3240 3242 3243 3244 3245 3247 3249 3250 3251 3252 3253 3254 3254 3255 3255 3255 3254 3254 3252 3251 3249 3247 3245 3243
3173 3178 3183 3189 3194 3198 3203 3207 3211 3213 3217 3220 3222 3225 3228 3230 3232 3233 3235 3237 3239 3241 3243 3244 3246 3246 3248 3249 3250 3251 3251 3252 3252 3252 3252 3252 3251 3250 3248 3246 3244 3242 3238
3168 3173 3178 3182 3187 3192 3197 3202 3206 3209 3212 3215 3218 3221 3224 3227 3229 3230 3232 3233 3235 3238 3240 3242 3244 3244 3246 3247 3248 3249 3248 3248 3248 3248 3249 3248 3247 3246 3244 3242 3240 3236 3233
3162 3167 3171 3176 3182 3187 3192 3196 3200 3204 3208 3211 3214 3217 3219 3222 3224 3226 3228 3229 3232 3234 3236 3238 3240 3241 3243 3245 3245 3245 3245 3245 3244 3243 3243 3242 3241 3241 3238 3236 3232 3230 3226
3157 3161 3165 3171 3177 3181 3184 3190 3195 3198 3202 3206 3209 3211 3214 3216 3219 3222 3224 3226 3228 3230 3231 3233 3235 3237 3239 3239 3240 3241 3241 3240 3239 3237 3236 3235 3234 3233 3231 3229 3224 3221 3218
3151 3155 3161 3165 3170 3174 3179 3183 3188 3192 3196 3199 3202 3206 3208 3211 3215 3218 3220 3222 3224 3226 3227 3229 3231 3232 3233 3234 3235 3235 3235 3234 3233 3231 3230 3228 3227 3226 3224 3219 3215 3211 3207
3145 3151 3155 3159 3163 3168 3173 3177 3181 3186 3190 3193 3196 3200 3203 3206 3210 3213 3216 3217 3219 3221 3223 3224 3225 3227 3228 3228 3229 3228 3228 3227 3226 3226 3223 3222 3221 3220 3216 3210 3207 3203 3199
3141 3145 3149 3153 3157 3163 3167 3171 3176 3180 3184 3188 3191 3195 3198 3201 3205 3208 3211 3212 3213 3215 3217 3219 3220 3221 3222 3223 3223 3222 3221 3221 3220 3219 3217 3217 3214 3212 3207 3202 3198 3193 3190
3135 3138 3142 3147 3152 3156 3161 3166 3171 3175 3179 3183 3186 3189 3192 3196 3199 3203 3204 3205 3206 3209 3211 3213 3214 3215 3217 3218 3217 3216 3216 3215 3214 3213 3212 3209 3207 3204 3200 3194 3190 3184 3177
3129 3132 3136 3142 3147 3151 3157 3161 3166 3170 3174 3177 3181 3184 3187 3191 3193 3196 3198 3199 3201 3204 3206 3207 3208 3209 3210 3210 3210 3209 3208 3208 3206 3205 3203 3201 3199 3196 3191 3187 3183 3176 3171
3124 3129 3133 3139 3143 3148 3153 3157 3161 3165 3168 3172 3175 3179 3182 3185 3187 3190 3192 3193 3195 3198 3199 3200 3200 3201 3201 3201 3200 3199 3198 3198 3196 3194 3193 3191 3189 3187 3184 3180 3176 3170 3163
3119 3125 3130 3135 3139 3143 3147 3151 3155 3159 3162 3166 3169 3172 3175 3178 3180 3182 3185 3186 3188 3189 3190 3191 3191 3192 3192 3191 3189 3189 3188 3186 3185 3183 3182 3181 3181 3179 3177 3173 3169 3164 3160
3115 3120 3125 3129 3134 3138 3142 3146 3150 3153 3157 3160 3163 3165 3168 3170 3173 3175 3177 3179 3180 3181 3182 3183 3183 3183 3182 3181 3180 3179 3177 3176 3174 3172 3172 3173 3172 3172 3169 3166 3162 3156 3150
3109 3115 3119 3124 3128 3132 3136 3140 3144 3148 3152 3155 3158 3160 3162 3165 3167 3168 3170 3171 3172 3174 3175 3175 3175 3174 3174 3173 3171 3170 3168 3166 3165 3163 3163 3164 3165 3164 3162 3158 3154 3149 3143
3099 3105 3111 3118 3123 3127 3130 3135 3138 3140 3145 3148 3150 3153 3156 3158 3161 3162 3163 3165 3166 3166 3166 3166 3166 3166 3165 3164 3162 3160 3158 3157 3156 3156 3156 3157 3157 3156 3154 3151 3146 3141 3136
3090 3095 3100 3107 3113 3119 3123 3126 3130 3132 3133 3140 3142 3145 3149 3151 3152 3154 3156 3157 3157 3157 3156 3157 3158 3156 3154 3153 3152 3151 3150 3149 3148 3149 3149 3150 3150 3148 3147 3143 3139 3134 3128
3081 3087 3094 3094 3106 3113 3117 3118 3121 3125 3128 3130 3133 3136 3140 3143 3143 3144 3146 3147 3147 3146 3147 3148 3147 3146 3145 3144 3143 3142 3141 3141 3142 3142 3142 3142 3142 3141 3138 3135 3131 3127 3121
3077 3076 3087 3094 3103 3103 3107 3108 3113 3116 3119 3122 3124 3127 3130 3132 3133 3134 3135 3136 3136 3136 3136 3136 3137 3137 3136 3135 3135 3134 3134 3134 3134 3134 3134 3134 3134 3133 3130 3126 3123 3119 3114
3075 3085 3091 3091 3093 3096 3100 3104 3106 3107 3109 3111 3114 3116 3118 3120 3122 3123 3125 3125 3125 3125 3124 3125 3126 3126 3127 3127 3127 3127 3127 3126 3126 3126 3126 3125 3125 3124 3121 3118 3115 3112 3107
3074 3079 3082 3085 3089 3093 3096 3098 3098 3099 3100 3101 3102 3104 3107 3109 3111 3113 3114 3114 3114 3114 3115 3115 3115 3116 3117 3118 3118 3118 3118 3117 3117 3117 3117 3116 3116 3114 3112 3110 3108 3105 3102
3066 3069 3073 3077 3081 3083 3085 3088 3090 3091 3093 3095 3095 3097 3099 3100 3101 3102 3103 3105 3105 3105 3106 3106 3107 3108 3109 3109 3109 3109 3109 3108 3108 3108 3107 3107 3106 3104 3103 3102 3100 3097 3096
3057 3061 3066 3070 3074 3075 3077 3080 3083 3086 3087 3089 3091 3090 3091 3092 3093 3094 3095 3095 3096 3097 3098 3099 3099 3100 3100 3100 3100 3100 3099 3098 3098 3097 3097 3096 3095 3094 3092 3091 3090 3089 3087
3052 3055 3058 3061 3066 3068 3070 3073 3075 3079 3081 3082 3085 3086 3085 3086 3086 3087 3088 3089 3090 3090 3090 3090 3090 3090 3089 3089 3088 3088 3087 3087 3086 3085 3085 3084 3084 3083 3083 3082 3081 3080 3079
3045 3049 3052 3055 3056 3060 3062 3064 3066 3068 3071 3073 3074 3076 3077 3076 3077 3078 3078 3079 3079 3079 3078 3078 3077 3076 3076 3075 3074 3074 3074 3073 3073 3073 3072 3072 3073 3073 3073 3072 3071 3071 3071
3033 3037 3041 3044 3047 3049 3051 3053 3055 3057 3059 3061 3063 3064 3065 3066 3066 3066 3066 3066 3066 3066 3065 3063 3061 3061 3061 3060 3060 3061 3061 3062 3062 3062 3062 3062 3062 3062 3062 3062 3061 3061 3060
3020 3023 3025 3028 3031 3034 3037 3039 3041 3043 3044 3045 3047 3048 3050 3050 3050 3051 3052 3052 3052 3052 3053 3052 3051 3051 3050 3049 3049 3050 3050 3050 3051 3051 3051 3051 3051 3052 3051 3052 3051 3051 3050
Wind_Speed
34 34 34 34 33 33 31 29 26 24 23 21 19 17 16 15 15 16 18 20 18 18 16 14 13 12 11 10 8 7 6 6 6 8 8 10 10 12 14 15 18 19 20
33 35 35 34 34 34 32 30 28 26 25 22 21 20 18 16 15 16 18 21 22 22 21 19 16 16 14 13 11 10 10 11 12 12 14 15 15 18 19 21 23 25 28
36 36 37 37 36 35 33 31 30 28 26 25 24 22 19 17 17 18 18 19 21 24 25 24 22 22 19 17 16 16 17 18 19 19 18 21 21 23 26 28 29 31 33
34 36 38 37 37 36 33 32 32 30 29 28 25 23 22 20 19 19 19 19 18 19 24 26 26 27 25 23 23 23 23 24 25 26 26 26 28 27 31 33 37 37 40
32 35 37 35 35 36 36 34 33 32 31 29 27 26 24 24 22 20 19 18 18 18 19 19 23 26 26 27 28 27 28 29 30 32 33 33 32 32 34 35 39 40 41
33 32 31 34 35 36 36 34 34 33 31 30 28 25 25 24 22 20 19 18 17 17 18 18 19 20 21 23 25 26 28 30 31 31 31 30 28 31 31 34 38 40 43
32 33 30 33 36 35 35 35 33 32 31 29 26 24 23 21 21 21 21 21 21 21 20 20 20 20 20 21 22 24 26 27 28 28 25 26 28 31 36 41 45 48 50
30 33 34 33 34 33 34 33 31 31 29 28 26 24 22 21 20 21 21 24 24 22 21 19 20 20 20 20 21 23 23 25 26 27 29 30 35 38 43 46 49 50 48
29 34 32 31 29 31 31 30 29 28 27 25 25 25 22 19 20 21 23 24 23 20 19 20 21 21 21 22 24 26 26 29 31 33 35 38 40 42 45 47 47 48 47
24 25 27 26 28 27 26 26 25 25 23 23 22 21 20 20 21 22 24 25 24 22 21 22 23 25 26 28 31 33 34 34 37 38 38 37 37 39 42 43 40 40 41
30 27 25 24 25 24 25 25 25 24 24 23 22 22 23 24 25 26 27 28 27 26 27 28 29 31 33 35 36 37 38 39 40 40 39 38 37 35 33 31 34 39 42
32 26 24 25 27 27 27 26 24 24 24 24 25 26 28 30 31 31 31 31 29 31 30 28 27 28 30 33 34 35 37 38 38 39 40 39 35 31 29 30 34 39 45
35 32 30 31 31 31 28 26 25 23 21 21 22 24 27 28 28 27 27 27 26 25 25 25 26 27 29 31 33 34 36 37 37 38 37 33 28 28 26 30 35 41 48
38 34 34 36 36 32 31 30 26 25 24 19 17 19 24 24 22 23 24 25 26 27 25 26 28 29 30 32 33 35 36 36 36 37 33 27 25 22 25 31 37 41 48
43 41 38 40 36 35 33 30 29 26 24 24 23 24 24 23 24 26 27 25 23 25 29 30 30 29 30 32 33 33 32 32 32 30 26 24 22 22 26 31 36 42 47
49 47 43 38 33 27 29 29 30 33 34 31 27 25 26 26 26 28 31 30 31 32 33 32 30 31 33 34 33 31 29 29 27 25 26 25 22 23 26 31 36 41 46
32 40 43 41 20 31 34 25 26 29 29 27 28 27 30 30 31 32 34 36 37 39 37 33 32 31 33 31 29 28 27 26 26 28 28 25 25 25 28 32 35 40 45
27 30 30 48 29 24 20 24 26 27 28 31 33 35 36 37 37 38 37 41 40 39 38 36 32 31 29 27 27 27 27 29 31 31 28 28 27 27 29 31 34 39 44
28 29 22 20 19 26 31 35 35 34 34 36 40 41 41 40 41 41 40 37 35 35 35 34 32 30 29 28 28 28 29 31 32 31 30 30 30 31 32 30 33 37 40
22 23 22 24 27 25 23 22 23 26 28 29 30 30 29 28 30 32 32 31 31 33 33 33 32 31 30 28 28 28 29 31 32 32 33 33 33 34 34 32 32 34 35
29 30 29 30 27 22 20 19 20 22 21 22 22 22 22 24 25 28 29 28 28 29 30 31 30 30 29 29 30 30 31 32 33 34 36 37 37 37 34 32 31 31 32
30 31 32 28 25 21 21 22 23 24 23 21 18 14 14 16 17 18 19 21 23 26 28 31 33 34 35 35 35 35 37 37 37 38 38 38 37 36 33 31 30 30 30
31 32 32 30 29 27 26 27 28 28 30 29 28 24 19 19 19 21 23 24 26 27 29 31 33 35 38 40 41 41 41 40 39 38 38 37 36 33 31 30 29 29 30
35 35 35 34 34 32 32 31 31 29 29 33 34 36 34 29 27 26 29 34 35 36 37 38 40 39 41 43 42 42 41 40 39 37 36 34 32 31 30 29 29 29 29
43 42 42 42 43 43 42 42 40 38 37 38 41 44 46 45 41 37 36 35 36 37 39 41 40 40 41 42 41 38 37 37 37 35 34 33 31 31 30 31 31 31 30
56 52 52 52 50 49 48 48 48 47 46 43 44 46 46 43 40 38 37 38 39 37 37 38 37 37 37 36 35 34 35 36 35 36 35 34 33 32 32 32 34 33 32
Wind_Direction
215 214 216 215 215 216 217 217 213 213 218 220 224 227 231 233 229 226 219 216 208 201 200 201 197 195 196 199 205 207 216 228 229 253 256 268 273 282 291 297 299 302 303
216 216 218 218 217 218 217 218 218 217 221 223 226 230 230 230 228 225 220 221 216 211 210 213 214 218 218 220 226 236 242 249 250 241 256 267 271 276 279 284 290 295 297
217 218 219 219 219 219 218 219 221 222 224 227 228 231 234 233 231 231 227 225 223 221 221 221 221 230 229 233 238 242 251 257 262 263 257 262 267 276 282 284 287 287 289
217 216 220 222 221 219 220 221 223 225 226 229 230 232 236 236 236 234 233 232 231 228 230 232 233 237 240 244 247 251 256 262 267 270 273 275 277 278 280 285 286 287 288
223 221 220 221 222 220 219 221 224 226 228 229 231 232 233 236 237 236 235 235 236 236 237 238 241 244 246 248 253 257 261 265 270 275 278 281 283 285 289 289 288 287 286
220 231 227 221 220 220 220 220 223 226 228 231 234 236 236 236 237 236 234 233 236 239 242 245 247 248 251 254 257 261 264 267 270 275 280 282 289 290 291 290 290 294 296
216 222 231 226 222 221 220 221 222 224 228 231 232 232 234 232 230 232 234 239 243 244 244 246 249 253 255 258 261 264 265 269 273 275 284 293 300 301 297 299 299 298 300
213 219 228 225 223 219 219 220 221 222 225 229 231 233 232 227 226 229 234 240 243 243 245 246 248 249 253 257 261 263 266 269 275 283 291 298 298 301 299 299 298 300 304
214 221 233 226 214 211 214 216 217 219 220 224 228 232 231 224 220 222 228 236 244 244 243 245 252 252 254 256 261 267 272 275 278 283 286 290 293 295 294 295 300 300 303
203 188 184 189 197 201 204 208 210 211 210 212 216 220 222 218 219 222 230 240 248 252 253 255 256 260 261 261 263 266 272 276 277 278 283 285 286 287 288 292 297 296 306
187 188 188 192 192 191 192 194 198 203 208 217 223 228 231 230 232 235 241 248 254 257 259 261 265 265 264 266 269 271 275 274 275 278 280 283 287 291 294 293 302 311 313
203 207 209 212 214 206 199 198 201 206 213 219 224 226 230 234 237 243 248 254 258 263 266 268 269 272 271 272 274 277 277 278 279 280 280 282 286 290 291 298 306 308 309
206 204 207 205 200 192 192 194 201 209 219 228 234 236 235 237 241 245 248 252 255 259 266 271 274 277 278 279 280 280 281 282 281 281 282 281 281 283 291 299 306 311 315
204 205 202 205 199 200 205 206 215 228 238 239 246 259 248 244 242 242 246 251 257 260 263 266 268 274 278 281 281 280 279 279 277 278 280 275 273 282 296 304 309 313 314
205 209 211 206 208 215 214 220 231 237 243 238 247 249 242 241 241 244 247 250 258 263 262 265 270 274 278 282 279 276 278 279 279 277 272 274 276 289 301 307 310 313 316
207 214 217 215 221 223 230 224 228 232 232 245 242 245 240 238 243 250 257 263 264 270 268 268 273 276 281 282 279 277 276 275 271 268 272 274 278 292 303 309 312 315 319
205 206 213 212 210 208 233 222 226 231 237 245 252 258 260 260 260 259 261 264 272 271 271 267 269 276 281 281 279 275 269 266 263 270 274 271 277 289 302 309 314 316 318
221 231 237 229 228 240 245 251 254 254 256 256 254 256 257 261 262 262 265 272 269 268 267 262 265 270 276 277 275 270 266 264 268 273 271 271 278 286 295 307 313 316 318
200 203 200 206 227 252 257 259 258 256 257 257 258 256 257 257 258 261 263 264 265 265 264 262 263 263 266 271 270 267 266 267 270 271 270 273 279 284 289 297 304 313 315
209 209 211 219 225 228 236 247 253 256 256 255 251 249 250 253 254 253 257 268 268 264 262 260 258 259 263 264 264 266 267 269 270 269 270 274 279 284 289 291 296 309 309
224 228 229 230 229 229 237 251 260 260 256 260 253 249 250 252 256 260 263 265 267 266 264 262 260 260 261 263 264 266 268 271 273 274 274 276 279 283 287 287 288 299 300
235 232 231 232 237 239 243 245 247 254 256 258 253 241 243 251 258 262 269 275 279 277 275 271 268 269 268 266 266 269 271 273 274 275 275 276 278 281 282 283 285 293 294
247 248 247 243 245 243 241 244 247 254 257 256 256 253 252 254 263 272 276 274 275 277 277 277 275 273 270 267 268 269 270 271 270 270 271 273 276 278 280 282 285 289 290
241 244 245 249 249 252 253 249 250 252 259 261 259 262 259 261 268 275 270 276 276 277 280 277 277 273 270 267 265 265 266 267 267 268 269 271 274 276 278 280 281 283 283
241 245 249 250 251 250 252 253 255 255 256 258 260 262 266 271 276 276 274 271 273 271 268 265 267 268 267 266 265 266 268 269 270 269 270 271 272 273 274 277 278 280 279
249 250 262 260 256 252 251 248 248 250 252 254 255 258 262 264 266 267 265 265 269 264 263 264 267 267 265 265 265 267 269 268 268 269 269 268 270 271 273 277 279 278 277